GEFSMW_500_meanwind_306.txt.gz
Wind_Speed
12 12 12 12 12 11 11 10 10 10 10 10 9 8 7 7 6 6 6 5 5 4 3 3 2 2 2 2 2 3 3 4 3 3 2 2 2 2 2 2 2 2 1
12 12 12 12 12 11 11 11 10 10 10 10 9 9 8 8 7 7 6 6 5 4 4 3 3 3 2 2 3 3 4 3 4 3 2 2 2 3 2 2 2 2 1
11 12 12 11 12 11 10 10 10 10 10 9 9 9 8 7 7 7 6 6 5 5 5 3 3 3 3 3 4 3 3 3 3 2 2 2 3 3 3 2 1 0 1
10 10 11 11 11 11 10 10 9 9 9 9 8 8 8 7 7 6 6 6 6 5 5 4 4 4 4 4 4 4 4 4 3 3 4 4 3 3 3 2 2 2 2
8 9 10 10 11 11 10 10 9 9 9 10 9 8 8 8 7 6 6 6 6 6 6 5 5 4 4 5 5 4 4 4 5 4 4 4 3 3 3 3 3 3 3
7 8 9 10 10 11 11 10 10 10 10 10 9 9 9 8 7 7 6 6 6 7 7 6 6 5 4 5 5 5 5 5 5 5 4 4 3 3 4 4 5 5 5
8 8 9 10 10 11 11 10 11 11 11 10 10 9 8 8 8 7 7 7 8 7 7 6 6 5 5 5 5 5 5 5 5 5 5 4 4 4 5 5 5 6 6
9 9 9 9 10 11 11 11 11 11 11 11 10 9 9 8 8 8 8 8 9 8 7 7 7 7 6 6 6 6 6 6 6 5 5 4 5 5 5 6 6 6 7
10 11 10 10 10 11 11 11 11 11 11 11 10 10 9 9 8 9 9 9 8 8 8 8 8 7 6 6 6 7 6 6 6 6 6 6 6 6 6 7 7 7 7
11 12 11 11 11 11 11 11 11 11 11 11 11 10 10 10 10 9 9 9 9 9 9 9 8 7 7 7 7 7 7 7 7 7 7 7 8 8 9 9 9 9 9
12 12 12 12 12 12 13 13 14 13 13 13 12 11 11 10 11 10 10 10 10 10 10 10 9 8 7 7 8 8 8 8 8 9 9 9 9 10 10 10 10 10 11
12 12 13 13 13 14 14 15 15 15 15 14 13 12 12 12 11 11 11 11 11 11 10 10 10 8 8 8 8 8 8 9 9 10 10 10 11 11 11 11 12 12 12
12 13 14 15 14 15 15 16 16 16 16 15 15 14 14 14 13 13 13 12 12 11 11 11 11 11 10 9 10 9 9 10 10 10 11 11 11 12 12 12 13 14 13
15 15 16 16 16 17 17 18 18 18 17 17 16 16 16 16 15 15 14 13 13 12 12 12 12 12 12 11 11 11 11 11 12 12 11 11 12 13 13 13 14 15 15
17 18 18 18 18 19 18 19 20 20 20 19 18 18 18 17 17 16 15 15 14 14 14 14 14 13 13 14 14 13 13 13 13 13 13 13 14 14 14 14 15 15 16
20 21 20 20 21 21 21 21 22 21 22 21 20 19 20 19 19 18 18 17 17 16 16 16 15 15 15 15 16 15 15 15 15 14 15 15 15 16 16 16 16 17 17
23 23 23 22 23 23 23 23 23 23 23 23 22 22 22 21 21 21 21 20 19 18 18 17 18 17 17 17 17 17 17 17 16 16 16 17 17 18 17 18 18 19 19
24 25 25 25 25 25 25 24 24 25 25 24 24 24 24 23 23 23 22 22 21 21 20 20 20 20 19 19 19 18 19 19 19 19 18 19 19 19 19 20 20 20 20
27 27 27 27 27 27 26 26 26 26 26 26 26 26 26 25 24 25 24 23 23 22 22 22 22 21 21 21 20 20 21 21 21 21 21 22 22 21 21 21 21 21 21
29 28 27 28 29 29 28 27 27 28 27 27 27 27 27 26 26 26 26 25 25 24 24 24 23 23 22 22 22 23 22 23 23 23 24 24 23 23 23 23 23 23 22
31 30 29 29 29 29 29 29 28 28 29 28 29 29 28 28 27 27 26 25 25 26 25 25 25 25 25 25 24 25 24 25 25 25 25 25 25 25 25 25 26 25 24
32 31 30 30 30 30 30 31 30 30 31 31 30 30 30 29 28 28 27 27 27 27 26 26 26 26 26 26 27 27 26 27 27 27 27 26 26 25 26 27 27 27 26
32 31 31 31 32 32 32 32 32 31 32 31 30 30 30 30 29 28 28 28 28 28 27 27 27 26 26 26 27 27 27 27 27 28 28 27 26 26 27 28 29 28 28
32 32 31 32 33 34 34 34 33 33 32 31 30 30 30 30 30 29 29 28 28 28 29 27 27 27 26 27 27 27 27 28 28 28 29 28 26 27 28 29 29 28 28
33 33 32 32 33 33 34 34 34 34 33 32 32 32 31 31 31 30 30 29 28 28 29 29 29 29 28 27 28 28 29 30 30 30 30 28 28 28 29 29 30 30 29
34 34 33 33 34 34 34 34 34 34 34 34 34 33 32 31 31 30 29 30 30 29 30 30 29 29 30 29 29 30 30 31 32 31 30 30 30 30 31 31 31 31 30

GEFSMW_500_meanwind_312.txt.gz
Wind_Speed
7 8 9 10 10 9 9 9 10 10 10 9 9 9 8 8 7 7 6 5 5 5 5 3 2 3 4 4 4 4 5 5 6 6 5 5 4 5 5 5 5 5 5
6 7 9 9 9 9 9 9 9 9 10 9 9 8 8 8 8 8 6 5 6 5 5 4 3 4 4 4 5 5 6 6 6 6 6 5 4 5 5 6 6 6 7
5 6 7 8 9 8 8 8 8 8 9 9 9 9 9 8 8 8 7 7 6 6 6 6 5 5 5 5 5 6 7 6 6 6 6 5 5 5 6 6 6 6 6
5 6 6 7 7 8 8 8 7 8 9 9 9 9 9 9 9 9 8 8 7 7 6 6 5 6 6 6 6 6 6 7 6 6 6 6 6 7 7 6 6 6 6
6 5 6 6 7 8 7 8 8 7 8 9 10 10 10 10 10 10 9 8 7 7 7 7 6 5 6 6 6 6 7 7 7 7 7 8 8 8 7 6 6 6 7
5 5 6 6 6 7 7 7 8 8 8 9 10 10 10 10 10 10 10 9 8 8 7 6 6 6 6 7 7 7 6 7 8 8 9 9 8 9 8 8 7 7 7
5 6 6 6 6 7 8 8 9 9 9 9 10 10 10 10 11 11 10 10 10 9 8 7 6 6 7 8 8 8 8 8 9 9 10 10 9 9 9 9 8 8 8
6 6 7 7 7 7 8 9 10 9 9 10 11 11 11 11 11 11 11 11 10 10 8 8 8 8 8 8 9 9 9 10 11 11 11 11 11 10 10 10 10 10 10
7 7 8 8 8 8 9 9 10 11 11 11 12 12 12 13 12 12 12 12 12 11 10 10 10 10 10 10 10 11 11 11 11 11 12 12 12 11 11 11 11 11 12
7 9 10 10 10 10 11 10 11 11 12 13 12 12 12 13 13 13 13 13 12 12 12 11 11 11 11 11 11 12 12 12 11 12 13 13 12 11 12 13 13 13 13
10 10 11 11 11 12 13 12 12 12 13 14 14 13 14 14 14 15 15 14 14 14 13 13 13 13 12 12 12 12 12 12 12 13 13 13 13 13 13 14 14 14 14
12 12 13 14 14 15 15 14 14 14 15 15 15 15 16 16 16 16 16 16 16 15 15 15 14 14 14 14 13 13 13 13 14 14 13 13 13 14 14 15 15 15 15
15 16 17 17 16 16 17 16 16 16 17 17 17 17 17 18 18 18 18 18 18 17 17 16 15 15 14 15 15 15 15 15 15 15 15 15 14 15 15 15 16 16 17
16 17 18 18 17 18 18 18 18 18 18 19 20 19 19 20 20 20 20 20 20 19 19 18 17 17 16 16 17 17 17 16 16 16 16 15 15 16 16 17 17 18 18
18 19 19 19 19 20 20 21 20 20 20 21 22 22 22 22 22 22 22 21 21 21 21 21 20 19 19 19 19 18 18 18 18 18 18 18 18 17 18 18 19 19 19
20 21 21 21 22 22 22 22 22 22 23 23 23 23 23 23 23 23 23 22 22 21 22 22 22 21 20 20 20 20 19 19 19 20 20 20 20 19 20 20 20 21 21
23 23 23 23 24 24 24 25 25 25 25 25 25 25 24 24 25 24 24 24 24 23 23 24 24 23 23 22 21 21 21 21 21 20 21 21 21 21 21 21 21 22 23
25 25 26 26 25 26 26 27 27 27 27 27 27 26 26 26 26 26 26 26 25 25 25 24 24 24 23 23 23 23 23 23 22 22 22 22 22 22 22 22 22 24 24
26 27 28 28 28 28 27 28 28 28 28 28 28 28 28 27 27 27 27 27 27 27 26 26 25 25 25 25 25 25 25 25 24 24 24 24 24 24 24 24 24 25 25
27 27 28 28 29 29 29 29 30 30 30 29 29 29 29 28 28 28 28 28 28 28 28 28 27 26 26 26 27 27 28 27 27 26 26 26 26 26 26 26 26 27 27
29 29 30 30 30 30 30 30 30 30 30 29 29 29 29 29 29 29 29 29 29 29 29 29 28 28 28 28 28 28 29 28 28 28 27 27 27 28 28 28 29 30 30
30 30 30 30 31 31 30 30 31 30 31 30 30 30 30 30 30 30 30 30 29 29 29 29 29 29 28 29 29 30 30 30 29 28 28 28 29 29 29 30 30 31 31
30 30 30 31 31 32 32 32 32 31 31 31 31 31 31 31 31 31 31 30 30 30 30 29 29 30 30 30 30 30 29 29 30 29 29 30 30 30 31 31 32 33 33
31 31 32 32 32 33 33 33 32 31 31 31 30 30 30 30 30 31 30 30 30 30 30 30 30 30 30 30 30 31 31 30 30 31 31 31 31 32 33 34 34 34 34
32 32 32 33 33 33 33 33 33 33 31 30 30 30 30 29 30 30 30 30 31 31 31 30 30 31 31 31 31 31 31 31 31 31 32 32 33 34 34 35 36 35 35
32 32 33 33 33 33 32 32 33 33 32 31 30 30 30 29 29 30 29 29 30 31 31 31 31 31 31 31 31 31 31 31 31 32 32 33 34 34 35 35 35 35 35

GEFSMW_500_meanwind_318.txt.gz
Wind_Speed
6 6 6 6 6 7 6 7 7 7 7 8 9 9 9 10 9 9 7 6 5 6 5 4 4 4 4 4 5 5 5 6 6 7 7 7 7 7 7 6 6 6 6
5 5 6 6 6 6 6 6 7 7 8 8 9 9 9 10 10 9 9 7 6 6 5 5 6 6 6 6 5 6 5 6 6 7 7 6 7 7 8 8 7 8 8
5 5 6 6 7 7 6 6 7 7 7 8 9 9 10 10 10 10 9 9 8 6 6 6 6 6 6 6 6 6 6 6 7 7 7 7 7 7 7 8 8 8 9
5 6 6 7 7 7 6 6 7 7 7 8 9 10 10 10 10 10 9 9 9 8 7 7 7 7 7 7 7 7 7 7 7 7 7 7 8 8 8 8 8 8 8
6 6 6 6 7 8 7 6 7 7 8 8 9 10 10 10 10 10 10 10 9 9 8 8 8 8 8 7 8 8 8 8 8 8 8 8 9 9 10 10 9 9 8
6 6 6 6 7 7 8 8 9 8 8 9 9 10 10 11 11 11 10 10 10 9 9 8 9 9 8 8 9 9 8 8 9 9 10 10 10 10 10 10 9 9 9
7 7 7 7 8 8 8 8 10 9 9 10 10 11 11 11 11 11 11 10 10 10 10 10 10 10 10 10 9 9 9 9 9 10 10 10 11 11 10 10 10 10 11
7 8 8 8 9 9 9 10 10 11 11 11 11 12 12 12 12 12 12 12 12 12 12 11 10 10 11 11 10 10 10 10 10 11 10 11 11 11 12 12 12 12 12
7 8 9 9 10 11 11 12 12 12 13 12 13 13 14 14 13 13 13 14 13 13 13 13 12 12 12 12 11 11 11 11 11 11 11 11 12 13 13 14 14 13 13
8 8 9 10 11 12 13 13 13 14 14 14 15 15 15 15 15 14 14 15 15 14 14 14 14 14 13 13 12 11 11 12 12 13 13 13 13 13 14 14 14 15 15
10 10 11 12 12 13 14 14 15 15 15 16 17 17 16 16 16 16 16 16 16 15 15 15 15 15 14 14 13 12 13 13 13 14 14 15 14 14 14 14 15 15 15
12 12 13 13 14 15 15 16 16 16 16 17 17 18 17 17 17 18 18 18 17 17 17 17 17 17 15 15 15 14 14 15 15 15 15 16 16 16 16 16 16 16 16
14 14 14 15 15 16 17 17 17 17 18 18 18 18 18 19 19 20 20 20 20 19 19 19 19 18 17 17 17 16 16 16 17 17 17 17 17 17 17 18 18 18 17
16 16 17 17 17 18 19 19 18 19 19 19 20 20 20 21 21 22 22 22 22 21 21 21 20 20 19 19 19 19 18 18 19 19 19 19 18 18 18 18 18 19 19
19 19 19 19 19 20 20 20 20 20 20 21 22 22 22 23 23 23 24 24 24 23 23 22 22 22 22 22 21 21 20 20 21 21 21 20 20 19 19 19 19 19 20
20 20 21 21 21 21 21 21 22 22 22 23 23 24 24 24 24 25 25 25 25 25 25 24 24 24 24 24 24 23 23 22 22 22 21 21 21 20 21 21 21 21 21
21 22 22 23 23 23 24 24 24 24 25 26 26 26 26 27 27 26 26 26 26 26 26 26 26 26 26 26 25 25 25 25 24 24 24 23 23 22 22 23 23 23 23
23 24 24 24 25 26 27 27 27 28 28 28 28 27 27 28 28 27 27 27 26 27 27 27 27 27 27 27 27 26 26 25 25 25 25 26 25 24 25 25 24 24 25
25 26 27 27 27 28 29 30 30 29 29 29 29 28 28 28 28 28 28 27 27 27 27 28 28 28 28 28 28 28 27 27 26 26 26 27 27 27 27 27 27 26 26
28 29 29 29 29 30 31 31 30 29 29 29 30 29 29 29 29 29 28 28 28 28 28 28 28 28 28 28 28 28 28 28 28 27 28 28 28 29 29 29 29 29 29
29 30 30 30 30 30 30 30 30 29 29 29 30 30 30 29 29 29 29 28 28 28 28 28 28 29 29 29 29 29 29 29 29 29 29 30 30 31 31 32 31 31 31
29 30 30 30 30 30 30 30 29 29 30 30 30 31 31 30 30 30 30 30 29 28 28 29 29 28 29 30 30 30 30 31 30 30 31 31 31 32 33 33 32 32 33
30 30 30 29 29 30 30 31 30 30 30 30 30 30 30 30 30 30 30 30 30 29 29 29 29 29 29 30 30 31 31 31 31 32 32 32 32 32 32 33 34 34 34
30 30 30 29 30 31 31 31 31 30 31 31 30 30 30 30 30 30 30 29 29 30 30 30 30 30 30 30 31 31 31 31 32 32 32 33 33 33 33 34 34 34 34
30 30 30 30 30 30 31 31 31 31 31 31 31 31 30 30 30 30 30 30 30 30 30 30 30 30 30 30 31 31 31 31 32 32 32 32 32 33 34 34 35 35 35
30 30 30 30 30 30 30 30 31 31 31 31 31 31 31 30 30 30 31 30 31 31 30 30 30 29 30 30 30 31 31 31 32 32 32 32 33 33 33 34 34 34 34

GEFSMW_500_meanwind_324.txt.gz
Wind_Speed
9 9 9 9 10 11 11 10 11 11 11 11 12 12 12 12 12 12 11 10 9 9 9 9 9 9 9 8 8 8 8 8 8 7 7 7 7 8 8 8 7 7 6
9 9 8 9 10 10 10 10 10 11 12 12 12 12 12 12 12 13 12 11 10 10 9 10 10 10 9 9 9 9 9 9 8 8 8 8 8 8 8 7 7 7 7
9 8 8 8 9 10 10 10 10 10 11 12 12 12 12 12 12 13 13 13 12 11 11 11 11 10 10 9 9 9 8 8 8 8 8 9 8 8 8 8 8 8 8
8 8 8 8 9 10 11 10 10 11 11 11 12 12 13 13 13 13 13 13 13 13 12 12 11 11 10 9 9 9 9 8 7 8 9 9 9 8 8 9 9 8 8
9 8 8 9 9 10 11 10 10 11 11 11 12 12 13 13 14 14 14 14 13 13 12 12 12 12 12 11 10 9 9 9 9 9 9 10 10 10 9 9 8 8 8
10 9 9 9 10 11 11 11 12 12 12 12 13 13 13 14 14 14 14 15 15 14 13 13 13 13 12 11 11 10 10 10 10 11 11 11 11 11 10 10 9 9 8
11 10 10 10 11 12 12 12 13 13 14 14 14 14 14 15 15 15 15 16 15 14 14 14 14 13 13 12 12 11 11 11 11 12 12 12 12 12 11 11 11 10 10
12 11 12 12 13 13 13 14 14 15 16 15 15 15 16 16 16 16 17 17 16 15 15 15 15 14 13 13 13 12 12 12 12 13 12 12 12 13 12 11 12 12 11
13 13 13 13 13 14 14 15 15 16 16 17 16 17 17 17 17 17 17 17 17 17 17 16 16 16 15 14 14 14 13 13 13 13 13 12 13 13 13 13 13 13 12
14 14 14 14 14 15 15 16 16 17 17 17 18 18 18 19 19 19 18 18 18 19 18 17 17 16 16 15 15 15 15 15 15 15 14 14 14 15 15 15 14 14 13
15 16 16 16 16 16 16 16 17 18 18 18 19 19 19 19 20 20 19 20 20 20 20 19 19 18 17 16 16 16 17 17 16 17 17 16 16 16 16 16 16 16 16
16 17 17 17 17 17 17 18 18 19 19 20 20 20 20 20 20 21 20 21 21 21 21 21 20 20 19 18 18 18 18 18 18 18 18 17 17 17 17 18 18 18 18
18 18 17 17 18 18 18 18 19 20 20 21 21 21 21 21 22 22 21 21 22 23 22 22 21 21 20 20 20 20 20 20 20 20 20 20 20 20 19 19 19 19 19
19 19 18 19 19 19 19 19 20 21 22 22 22 23 23 23 24 24 23 23 23 23 23 22 22 22 22 22 22 22 22 22 22 21 21 22 21 21 21 20 20 20 21
20 20 21 21 21 21 22 23 22 23 24 25 25 25 25 26 26 25 25 24 25 24 24 24 23 23 24 23 24 24 23 23 23 23 23 23 23 22 22 22 22 22 22
21 22 22 22 23 24 25 25 26 26 26 26 27 27 27 27 27 26 25 25 26 26 26 25 25 25 25 24 25 25 24 24 25 25 25 24 24 24 24 24 25 24 24
23 24 24 24 25 26 26 27 27 27 28 28 28 28 28 28 28 28 27 27 27 27 27 27 27 27 26 26 26 27 27 27 27 27 26 26 26 26 26 26 26 27 27
25 26 26 26 27 27 28 28 28 28 28 29 28 29 29 29 29 28 28 29 30 29 28 28 28 28 28 28 29 29 29 29 28 28 28 27 27 27 27 27 27 27 28
27 27 27 27 28 28 28 28 28 29 29 29 29 30 29 29 29 30 30 31 31 30 30 29 28 29 29 30 30 30 30 30 30 30 29 28 28 28 29 29 28 29 29
28 28 28 27 28 28 28 29 29 30 30 30 31 30 31 31 31 31 31 31 31 30 30 30 30 30 30 30 30 30 30 30 30 30 30 30 30 30 30 30 30 30 30
28 27 28 28 28 28 29 30 30 30 31 31 31 31 31 31 32 32 32 32 32 31 31 31 31 31 32 32 32 32 32 31 31 31 31 31 31 31 32 32 32 32 33
28 28 28 28 29 29 29 30 31 31 31 31 31 31 31 32 32 32 32 32 32 31 32 32 32 32 33 33 33 33 33 33 32 31 31 31 32 31 32 32 33 33 34
28 29 29 30 30 30 30 31 31 31 31 31 32 31 31 31 32 32 32 32 32 32 32 32 32 32 32 32 32 33 33 33 32 31 32 32 32 32 32 32 33 33 34
29 30 30 31 31 31 31 31 31 31 31 31 31 31 31 32 32 33 33 33 34 34 34 33 33 32 32 32 32 32 32 32 32 32 32 32 31 31 31 32 33 33 33
30 31 31 31 31 31 31 32 32 32 32 32 32 32 32 32 33 33 33 34 35 34 34 34 33 33 33 33 33 33 32 33 33 32 31 32 32 32 32 32 32 32 32
31 31 31 31 31 32 32 32 32 31 32 32 33 33 33 34 35 34 34 34 34 34 34 35 35 34 34 33 33 33 32 33 32 32 31 31 31 32 32 32 33 33 32

GEFSMW_500_meanwind_330.txt.gz
Wind_Speed
10 10 10 10 10 11 11 10 10 10 11 11 11 10 9 9 9 9 8 8 9 9 8 8 7 7 7 7 7 6 7 6 6 6 6 6 6 5 6 6 6 6 5
9 9 9 9 10 10 10 10 10 10 10 11 11 10 9 9 9 9 10 10 9 9 8 8 8 7 7 7 7 7 7 7 7 7 7 6 6 6 6 6 6 6 6
8 9 8 8 9 9 9 10 9 9 10 10 10 10 10 10 10 10 10 10 10 10 9 9 9 8 8 8 8 8 7 8 8 8 8 7 7 7 7 6 6 6 7
9 9 8 8 9 9 9 10 10 10 10 10 10 11 11 11 11 11 11 11 10 10 9 9 9 9 9 9 9 9 9 9 9 9 8 7 7 7 7 7 7 8 8
8 9 9 8 9 10 10 10 11 10 10 10 10 11 11 11 12 11 12 12 11 11 10 10 10 10 9 9 9 9 9 9 9 8 8 7 7 7 7 7 7 8 9
9 9 9 9 10 10 11 11 11 11 10 10 11 12 12 12 13 13 13 13 13 12 12 11 10 10 10 10 10 10 11 10 10 9 9 8 8 8 8 8 8 9 10
10 9 10 10 11 11 11 11 11 12 12 12 12 13 13 13 13 14 14 13 14 14 13 11 11 11 11 11 11 11 11 11 11 11 11 10 9 9 9 9 9 10 11
10 10 10 11 12 12 11 12 12 13 13 13 14 13 13 13 14 15 15 15 14 14 14 13 13 13 13 12 12 12 12 12 12 12 12 11 11 11 11 11 11 11 11
12 11 10 11 12 12 12 13 13 13 13 14 14 14 14 15 16 16 16 16 16 15 15 15 14 14 14 14 14 14 13 13 12 12 13 13 13 13 13 13 13 13 13
12 11 11 12 13 13 14 14 14 13 14 15 15 15 15 16 16 16 17 17 17 17 16 16 16 16 16 16 16 15 15 14 14 14 14 15 15 15 15 15 14 14 15
12 12 12 13 13 13 14 14 15 15 15 16 16 16 17 17 17 17 18 18 18 17 17 17 17 16 16 16 17 17 17 16 16 16 16 16 17 17 17 17 17 16 16
14 13 13 13 14 14 14 15 15 16 17 17 17 18 19 19 19 19 19 19 19 18 18 18 18 18 18 18 19 18 18 18 18 18 18 17 17 17 17 18 18 19 19
14 14 14 15 15 15 15 16 16 17 19 19 19 19 20 20 20 20 20 20 20 19 20 20 20 20 20 20 20 20 20 20 20 20 20 20 20 19 19 20 20 19 20
15 15 16 17 17 17 17 17 18 19 19 20 19 20 20 21 20 21 21 21 20 20 21 20 20 21 21 22 22 22 22 22 22 22 22 22 22 22 22 22 21 21 21
18 18 18 18 19 19 19 19 20 20 20 21 21 22 21 21 21 22 22 22 22 22 22 22 22 21 21 22 22 22 23 23 24 24 23 24 24 23 23 23 23 23 23
20 20 20 21 22 21 21 21 21 22 22 22 22 22 23 22 22 23 23 23 23 23 24 23 22 22 23 23 23 24 24 24 24 24 24 25 25 25 25 25 25 25 25
22 22 22 23 23 23 23 23 22 22 23 23 23 23 23 24 24 24 24 24 25 25 25 25 24 24 24 24 24 24 24 25 25 25 25 26 26 26 27 27 27 27 27
24 24 24 24 24 23 22 22 23 24 24 24 24 24 25 26 26 26 26 25 26 26 26 26 26 25 25 25 25 26 26 26 26 27 27 27 27 28 28 28 28 28 28
26 26 26 25 24 23 24 25 25 25 25 26 26 27 27 28 28 27 27 27 27 27 27 27 27 27 27 27 27 28 28 28 28 29 29 29 29 29 29 29 29 29 30
26 26 26 25 25 25 26 25 25 25 26 27 27 28 28 28 28 27 28 28 28 28 28 28 28 29 29 29 29 29 30 30 30 30 31 31 30 31 31 31 31 31 31
27 27 26 25 25 26 27 26 26 26 27 28 29 29 29 29 29 29 29 29 29 29 29 29 29 30 30 31 31 30 30 31 31 31 32 32 32 32 32 32 32 32 33
28 28 28 27 27 28 28 27 27 27 28 29 30 30 30 30 30 30 29 29 29 29 29 30 30 30 30 31 31 31 32 32 32 32 33 34 34 33 32 33 33 33 33
29 29 29 29 30 30 29 29 29 29 29 30 30 31 31 31 31 31 31 31 30 30 30 30 30 30 31 31 31 32 32 33 32 32 32 32 32 31 31 32 32 33 32
29 30 30 30 30 31 31 30 30 30 30 30 31 32 32 32 32 32 32 32 32 32 31 31 31 31 31 31 32 32 32 32 31 31 30 30 30 30 30 30 30 31 31
30 30 30 30 31 31 32 31 31 31 31 31 32 32 32 32 32 32 32 32 32 32 32 31 31 32 31 31 32 32 32 31 30 29 29 28 28 28 29 29 29 30 31
30 30 31 31 31 31 32 32 32 32 32 32 31 32 32 33 32 31 31 30 31 32 32 32 32 32 32 31 31 32 32 31 30 29 28 28 28 28 29 29 29 30 31

GEFSMW_500_meanwind_336.txt.gz
Wind_Speed
8 8 9 8 8 8 8 9 9 10 9 9 8 8 8 8 9 8 8 8 8 9 9 9 9 9 9 9 9 9 8 7 6 6 7 7 6 6 5 6 6 7 7
8 8 8 8 8 8 8 10 9 9 9 9 8 8 8 8 9 9 8 9 9 9 9 10 9 9 9 9 9 9 9 8 7 7 6 6 7 7 7 7 8 8 9
7 8 8 8 7 7 8 9 9 8 8 8 8 8 8 8 9 9 9 10 10 10 10 10 11 11 11 10 10 9 9 9 8 8 7 7 7 7 8 8 9 9 10
8 9 8 8 7 7 8 9 9 8 8 8 9 9 9 9 9 10 10 11 11 11 11 11 11 11 12 11 11 10 10 9 9 9 9 9 8 7 8 9 10 12 12
8 8 8 7 7 8 8 8 9 9 9 10 9 9 10 10 10 11 12 12 12 12 12 12 11 12 12 12 11 11 11 11 11 11 10 10 9 9 10 10 10 11 12
9 9 9 9 9 9 8 8 9 9 10 10 10 10 10 11 11 12 12 13 14 13 13 13 12 13 13 13 13 13 12 12 12 12 11 11 11 11 11 11 11 12 13
10 10 9 10 9 10 9 9 10 10 11 11 11 12 12 12 11 12 12 13 14 14 14 14 14 14 14 14 14 14 13 13 12 12 13 13 13 13 13 13 13 13 13
11 11 10 10 10 11 10 10 11 11 12 13 13 13 13 13 13 13 13 14 14 14 15 16 16 16 16 16 15 15 15 15 15 14 14 14 14 15 15 15 15 15 15
11 11 10 11 12 12 11 12 12 12 13 14 15 15 14 13 14 15 15 15 15 15 16 16 17 17 17 17 17 17 17 17 17 17 16 16 16 16 16 17 17 17 16
12 11 12 13 14 13 13 13 13 13 14 15 16 16 16 15 15 15 15 16 16 17 17 17 18 18 18 18 19 19 19 19 19 19 19 19 18 18 18 19 19 18 17
12 12 13 14 14 14 14 14 14 14 15 16 17 18 17 17 16 16 16 17 17 18 18 19 19 19 19 20 20 20 20 20 20 20 20 20 20 20 20 20 20 21 20
12 12 13 14 14 15 15 15 15 15 16 17 17 18 18 17 17 17 17 18 19 19 19 19 20 20 20 21 21 21 22 22 22 22 22 22 22 22 22 22 22 22 22
13 13 14 14 15 15 15 15 15 16 16 17 18 18 18 18 18 18 19 19 20 20 20 20 21 21 22 22 22 22 23 23 23 23 23 23 24 24 24 24 24 24 24
15 15 14 15 16 16 16 17 17 18 18 19 19 19 19 19 19 20 20 20 21 21 21 22 22 22 23 23 23 24 24 24 24 24 24 24 24 24 25 25 25 25 25
17 17 17 17 17 17 18 18 19 20 19 20 21 21 20 20 21 21 22 22 23 23 23 23 24 24 24 24 24 24 24 24 25 25 25 26 25 25 26 26 26 27 27
19 19 19 19 19 19 19 20 20 21 22 22 22 22 22 22 22 23 23 24 25 25 25 25 25 26 26 25 25 25 25 26 26 26 26 27 27 27 27 27 28 28 28
21 20 20 20 21 21 22 22 22 23 23 23 23 23 24 23 23 24 25 25 26 26 26 26 27 27 27 27 27 27 27 27 27 27 27 27 28 28 28 28 29 29 30
20 21 22 22 22 23 23 23 23 24 24 25 24 25 25 25 25 25 26 27 27 28 28 28 29 29 29 29 29 29 29 29 29 29 29 29 29 29 29 30 30 31 31
22 22 23 24 24 25 24 24 25 25 25 26 26 27 27 27 27 27 28 28 28 29 29 30 30 30 30 31 31 30 30 30 31 31 31 31 31 31 31 32 32 32 33
23 24 24 25 25 26 26 26 26 26 27 27 27 28 28 28 28 29 29 30 30 30 30 30 30 30 30 31 31 31 31 31 32 32 33 33 33 33 33 33 33 33 33
26 26 26 27 28 28 28 28 28 28 28 28 29 29 30 30 30 31 31 31 31 31 31 31 31 31 31 31 32 32 32 32 32 33 34 34 34 34 34 33 33 34 34
28 28 28 29 29 30 29 29 29 29 30 30 30 31 32 32 32 32 33 33 32 32 32 32 32 32 32 32 32 32 33 34 34 34 34 34 34 34 34 34 34 35 35
29 30 29 30 30 30 30 29 29 30 31 32 32 32 33 33 33 33 34 34 33 34 34 33 33 33 33 33 33 34 34 35 35 35 35 34 34 34 34 34 34 34 35
29 30 29 28 29 29 30 30 30 31 32 32 33 33 33 33 33 34 34 34 34 34 34 34 35 34 33 34 34 35 35 35 35 35 34 33 33 33 32 32 33 34 34
29 29 29 28 29 30 30 31 32 32 33 33 34 34 33 34 34 34 35 35 35 35 34 34 34 34 34 35 35 35 35 34 34 34 33 33 33 32 32 33 33 33 33
28 29 29 29 30 31 31 31 32 32 32 33 34 34 34 34 35 35 35 35 34 34 34 34 34 34 35 35 35 35 35 35 35 34 33 33 33 33 33 33 33 32 32

GEFSMW_500_meanwind_342.txt.gz
Wind_Speed
7 7 7 7 7 7 7 7 8 8 7 6 6 6 6 6 5 5 6 7 7 7 7 6 7 7 7 7 8 8 8 7 7 7 7 7 7 7 7 7 8 8 8
8 8 7 7 7 7 7 7 7 8 7 7 6 6 7 7 6 6 6 7 7 7 7 7 7 8 8 9 9 9 9 8 8 8 8 8 8 8 7 8 8 9 9
9 9 8 8 8 8 8 8 8 9 9 8 8 7 7 7 7 7 7 8 7 7 8 8 8 8 9 9 10 10 9 9 9 9 9 9 9 8 8 8 9 9 10
9 9 10 9 9 8 9 9 9 9 9 9 9 8 8 8 9 9 9 9 8 8 8 9 9 9 10 10 10 10 10 10 10 10 10 10 11 10 10 9 10 11 12
10 10 10 10 9 9 10 10 10 10 10 10 9 9 10 10 10 10 10 10 10 10 9 10 10 10 10 10 11 11 11 11 11 12 12 12 12 12 12 11 12 12 12
10 9 9 10 9 9 9 10 11 11 11 11 11 10 10 10 11 11 11 11 10 11 10 11 11 11 11 12 12 12 12 12 12 12 13 13 13 13 13 13 14 15 15
10 9 10 10 10 10 10 11 12 12 12 12 12 11 11 11 12 12 12 12 12 12 12 12 12 13 13 14 14 14 14 14 14 14 14 14 14 14 14 15 15 16 16
11 11 11 11 11 11 11 12 12 12 12 12 13 13 13 13 13 12 12 13 13 13 13 13 14 15 15 16 15 15 15 16 16 16 16 16 16 16 16 17 17 17 18
13 12 12 12 12 12 12 12 12 12 13 13 13 14 14 14 14 13 13 13 13 14 14 15 16 16 16 17 17 17 18 18 18 18 18 18 18 19 19 19 19 19 20
13 13 12 12 12 12 13 13 13 13 14 14 14 15 14 14 14 14 14 14 15 16 16 17 18 18 19 19 20 19 19 20 20 20 20 20 20 21 21 22 22 22 22
14 13 13 13 14 14 14 15 15 15 15 15 15 15 15 16 16 16 16 16 17 17 18 19 19 20 20 21 21 21 21 21 21 21 22 22 22 23 23 24 24 23 23
15 15 15 15 15 15 16 15 16 16 16 16 17 17 17 16 16 17 17 18 19 19 20 20 20 21 21 22 22 22 22 22 23 23 23 24 24 25 25 25 25 25 25
16 16 16 16 16 16 16 16 17 17 16 17 17 17 17 17 17 17 18 19 20 20 21 21 21 22 22 23 23 24 24 24 24 24 24 25 25 26 26 26 26 27 27
17 17 16 16 16 17 17 17 18 17 17 18 18 19 19 19 19 19 19 20 21 21 22 23 23 23 23 24 25 25 25 25 25 25 25 25 26 26 26 26 26 27 28
17 17 18 18 18 19 19 19 19 19 19 19 20 20 20 21 21 20 21 21 22 23 23 23 24 25 25 26 26 26 26 26 27 27 26 26 26 26 26 27 27 28 28
19 18 19 19 20 20 20 20 20 20 21 21 22 22 22 22 22 22 23 23 24 25 25 25 26 27 27 27 27 27 28 28 28 28 28 28 28 28 28 29 29 29 30
20 20 20 21 22 22 21 21 21 22 22 23 24 24 24 24 24 25 25 25 26 27 28 28 28 28 28 28 28 29 29 30 30 30 30 30 30 30 30 30 31 31 31
21 21 22 23 23 23 23 23 23 23 24 24 25 26 25 25 26 26 27 27 28 28 28 29 29 29 30 29 29 30 30 30 31 31 31 31 31 31 31 32 32 32 33
23 23 24 24 24 24 24 25 25 25 25 26 27 26 26 27 28 28 28 29 29 30 30 31 30 31 31 30 30 30 31 31 31 32 32 32 32 32 32 32 32 33 34
25 25 25 26 26 26 26 26 26 27 27 28 28 28 28 28 28 29 29 30 30 31 31 32 31 31 31 31 31 31 32 32 33 33 34 34 34 33 33 33 33 33 33
27 26 27 27 27 27 27 28 28 29 29 29 30 29 29 29 30 31 32 32 32 32 32 32 31 31 31 32 32 33 33 32 33 34 34 34 34 34 34 33 33 33 33
27 27 27 27 28 28 28 29 29 30 30 31 31 30 30 30 31 32 33 34 34 34 33 33 32 32 32 33 33 34 33 33 34 34 35 34 34 34 34 34 34 34 34
27 26 27 28 28 29 29 29 30 31 31 32 32 32 31 30 32 33 34 34 34 34 34 34 33 33 33 33 33 33 34 34 34 34 35 34 34 34 35 35 35 35 35
26 27 27 28 28 29 29 30 30 30 31 31 31 30 30 30 32 33 34 34 34 33 33 33 33 33 34 34 34 34 35 35 35 35 34 34 34 34 33 33 33 33 33
26 26 27 28 28 29 29 29 29 30 30 31 30 30 30 31 32 33 34 34 33 32 32 31 32 33 33 34 35 35 35 36 35 35 35 34 34 33 31 31 31 31 31
26 27 27 27 28 28 28 28 29 29 29 29 30 30 31 31 31 32 32 32 32 31 31 32 32 33 34 34 35 35 35 35 35 34 33 33 31 31 30 30 30 30 30

GEFSMW_500_meanwind_348.txt.gz
Wind_Speed
12 13 13 13 11 11 12 12 12 12 12 12 12 11 11 10 9 9 8 9 9 9 10 10 9 9 8 9 10 10 9 8 8 8 8 8 8 8 8 8 8 7 7
12 13 13 12 12 12 12 12 13 13 13 13 13 12 11 11 9 9 9 9 9 9 10 10 9 9 9 9 10 10 9 9 9 8 8 9 9 9 9 9 8 8 8
12 13 13 13 13 13 12 12 13 13 14 13 13 12 12 11 10 10 10 11 10 10 9 10 10 10 10 10 11 11 11 10 10 9 9 9 10 10 10 10 9 9 9
13 13 13 13 14 13 13 13 13 14 13 13 13 13 12 12 11 11 11 11 12 12 10 11 11 10 11 11 12 12 12 11 11 10 10 11 11 11 11 10 10 10 10
13 13 13 14 14 14 14 13 13 13 13 13 13 13 13 12 12 11 11 11 12 12 12 12 12 12 12 13 13 13 13 13 13 13 12 12 12 12 12 12 12 12 12
14 14 14 14 14 14 14 14 13 13 13 13 13 13 13 13 12 12 13 13 13 13 13 12 13 13 14 14 14 14 14 14 15 15 15 14 14 14 14 13 14 14 15
15 14 14 14 14 14 14 13 13 13 13 13 13 14 14 14 13 14 14 14 14 14 14 14 14 15 15 15 15 16 16 16 17 17 17 17 16 16 16 17 17 17 17
16 16 15 15 14 14 14 13 13 13 13 14 14 14 15 15 15 15 14 14 14 14 15 15 16 17 17 17 17 17 17 18 18 18 19 19 19 19 19 19 19 19 19
17 17 16 16 16 15 15 15 13 13 14 14 15 15 16 16 16 16 15 15 15 15 15 16 17 18 18 18 18 19 19 19 19 20 20 21 21 21 21 21 21 21 21
17 17 18 18 17 17 17 15 15 15 15 15 15 17 17 16 16 16 16 17 17 17 17 17 18 18 19 19 20 20 21 21 21 22 22 22 22 23 23 23 24 24 24
18 18 19 18 18 18 17 15 15 15 16 16 16 17 18 18 18 18 18 18 19 19 19 19 19 20 21 21 22 23 23 23 23 24 24 25 25 25 25 25 25 25 26
19 20 20 19 18 18 18 18 17 18 18 17 17 17 17 18 18 19 19 20 20 21 21 21 21 22 22 23 24 24 25 25 25 26 26 26 26 26 26 26 26 27 27
20 20 20 21 20 19 18 18 18 19 18 17 18 19 19 19 19 20 21 21 22 22 22 23 23 24 24 25 26 26 26 26 27 27 27 27 27 28 28 28 28 29 29
22 22 22 22 22 20 20 19 20 20 19 19 20 21 21 22 22 22 22 23 23 24 24 24 25 26 26 27 27 27 27 28 28 28 28 28 28 29 29 30 30 30 30
24 24 24 23 22 22 21 21 21 21 21 21 22 22 23 23 24 24 24 25 25 26 26 26 27 28 27 28 28 28 28 28 29 29 29 29 30 30 30 30 30 31 31
25 25 24 23 23 23 23 22 23 23 23 23 24 24 25 25 26 26 26 27 28 27 28 28 28 29 29 29 29 28 29 29 29 29 30 30 30 30 31 31 31 31 31
26 25 25 25 25 25 24 25 25 25 25 25 26 26 26 27 27 27 28 28 28 29 30 30 30 30 30 29 29 29 29 29 30 30 30 30 30 31 31 32 32 32 32
26 26 26 26 26 25 25 26 27 27 26 26 26 27 28 28 29 28 29 29 30 30 31 30 31 30 29 29 29 29 29 29 30 30 30 31 31 31 31 32 32 33 33
27 27 27 27 27 27 27 28 28 28 28 27 28 28 29 30 30 30 29 30 30 30 30 30 30 29 29 29 30 31 30 30 30 31 31 31 32 32 32 33 33 34 34
28 28 27 27 28 28 28 28 28 28 28 29 29 29 30 30 31 30 31 31 30 30 30 30 30 30 30 30 31 31 31 32 32 32 33 33 33 33 33 34 34 34 34
28 28 29 28 28 28 28 28 28 29 29 29 29 30 30 31 31 32 32 32 31 31 31 31 31 31 31 32 32 32 32 32 33 32 33 34 34 35 34 34 34 33 32
28 28 29 28 28 28 28 28 28 29 29 29 29 30 30 31 32 33 33 33 32 32 32 32 32 32 32 32 32 32 32 33 34 33 34 35 35 35 34 34 33 32 32
28 28 28 28 28 28 29 29 29 29 29 29 30 30 31 31 32 32 32 32 32 32 32 32 32 32 32 32 33 32 33 34 35 35 35 36 35 35 34 34 33 32 32
29 29 28 28 27 28 29 29 29 29 29 29 30 30 31 31 32 32 32 32 32 32 32 32 32 32 32 33 33 33 34 34 35 35 35 35 34 34 33 32 31 31 31
29 29 28 27 27 28 28 28 29 29 30 30 31 31 31 31 31 31 31 31 31 31 31 31 32 32 32 33 34 34 34 34 35 35 34 34 33 32 31 30 30 29 29
28 28 28 28 28 28 29 30 29 30 31 31 31 31 31 31 31 30 30 30 30 31 31 30 30 31 32 33 35 35 35 35 35 35 34 33 31 30 30 29 28 28 28

GEFSMW_500_meanwind_354.txt.gz
Wind_Speed
12 12 12 11 11 11 11 11 11 11 10 10 9 8 7 6 7 6 6 6 7 7 7 7 6 6 6 5 5 5 5 6 6 7 6 5 6 6 7 7 7 7 8
12 12 12 11 10 10 10 10 11 11 10 10 9 8 8 7 7 7 7 7 7 8 8 8 7 7 6 6 6 6 6 7 7 6 6 7 7 7 8 8 8 8 8
12 12 12 12 11 11 11 10 11 11 10 9 9 8 8 8 7 8 8 8 9 9 9 8 8 8 7 7 7 7 7 7 7 6 7 7 7 8 8 8 9 8 8
11 12 12 12 11 11 11 11 11 11 11 9 9 9 9 9 9 9 9 9 10 9 9 9 9 8 8 8 8 8 8 8 8 9 9 9 9 9 10 10 10 10 10
11 12 13 12 12 11 11 11 12 12 12 11 10 10 9 9 9 9 10 10 10 10 10 9 9 9 9 9 9 10 10 10 10 11 11 11 11 11 11 11 12 12 12
11 12 12 12 12 12 12 12 12 12 12 12 11 11 11 10 10 10 11 11 11 11 10 10 10 10 10 10 11 12 12 12 12 13 13 13 13 13 13 13 13 14 15
12 13 13 13 13 13 13 12 12 12 12 12 12 12 12 11 11 11 11 11 12 12 11 11 12 12 12 12 13 13 13 14 14 14 14 15 15 15 15 16 16 16 16
12 14 14 14 14 14 14 13 13 13 13 13 13 13 13 11 11 11 11 11 12 12 13 13 13 13 14 14 14 14 15 15 16 16 17 17 17 18 18 18 18 18 18
13 14 15 14 15 15 15 14 14 14 14 14 14 13 13 12 12 12 12 12 13 14 14 14 15 15 15 15 16 17 17 18 18 18 19 19 20 20 21 21 21 21 21
14 15 15 15 15 16 15 15 15 15 14 14 14 14 14 13 13 13 14 14 15 15 15 16 16 16 17 17 18 19 19 20 20 21 21 22 22 23 23 23 23 23 24
15 15 16 16 16 16 16 16 17 16 16 16 15 15 15 15 15 14 15 16 16 16 16 17 18 18 18 19 20 21 21 21 22 22 23 24 24 24 25 25 25 25 25
15 15 16 17 17 17 17 17 18 18 18 18 17 17 17 17 17 17 17 17 17 17 18 19 20 20 20 21 21 21 22 22 23 23 24 24 24 25 25 26 27 28 28
15 16 17 17 18 18 18 18 19 19 19 19 19 19 18 19 19 19 19 19 20 20 20 21 21 21 21 21 22 22 22 23 23 23 23 24 25 25 26 26 27 29 29
16 17 18 19 19 19 20 20 21 20 20 20 20 20 20 20 20 20 20 20 21 21 20 22 22 23 23 23 23 23 24 24 24 23 23 24 24 25 26 27 27 28 29
18 18 19 20 20 20 21 21 22 22 22 22 22 21 21 21 21 22 21 21 22 22 22 23 24 24 23 24 24 25 25 25 25 25 25 25 26 27 27 28 28 29 29
21 21 20 21 22 21 22 22 23 23 23 23 23 23 22 23 23 23 22 22 23 24 25 25 24 24 25 25 25 26 26 26 26 27 27 27 27 28 28 29 30 30 30
23 24 23 23 23 23 24 24 24 24 24 24 24 24 24 24 24 24 23 24 25 26 25 25 25 25 25 25 26 26 26 27 27 28 28 28 29 29 30 30 30 31 31
25 26 25 25 25 25 25 25 25 24 24 25 25 25 25 25 25 25 26 26 26 26 26 25 25 25 25 26 27 27 28 28 28 29 29 29 29 29 30 30 31 30 30
26 27 26 26 26 26 26 25 26 25 25 25 25 25 26 26 26 27 27 27 27 27 26 27 26 26 27 28 28 29 29 29 29 29 29 29 30 29 29 30 31 31 30
26 27 27 26 26 26 26 27 27 26 25 25 25 26 26 27 27 27 27 28 28 28 28 27 27 27 28 28 29 29 29 29 29 29 29 29 29 29 29 30 31 31 30
26 27 27 27 27 26 26 26 26 25 25 26 27 27 27 28 27 27 27 28 29 28 28 28 28 28 28 29 29 29 29 29 29 30 30 30 30 29 30 30 31 31 30
27 28 27 27 26 25 26 26 25 26 27 27 28 28 28 28 27 27 28 29 28 28 28 28 28 28 28 28 29 29 29 29 30 30 30 30 30 29 30 30 31 31 31
28 28 28 27 27 26 26 26 26 27 27 28 28 27 28 28 28 29 29 29 29 28 28 28 28 28 28 28 29 29 29 30 30 30 31 31 30 30 30 31 31 31 31
27 27 27 27 26 26 26 27 27 27 28 29 29 28 28 29 29 29 29 30 29 28 28 28 27 27 27 28 29 29 29 29 30 30 31 30 30 30 31 30 30 30 29
27 27 27 26 27 27 26 26 26 27 27 28 28 27 27 27 28 28 29 29 29 28 28 28 28 27 27 27 28 28 29 29 30 30 30 30 30 30 30 30 29 28 28
26 26 26 25 25 25 25 26 27 27 27 27 28 28 27 27 27 27 27 27 26 27 27 28 27 27 27 28 28 28 29 29 30 30 30 30 30 29 28 28 28 27 26